Regional Weather Roundup
Issued by NWS

Home | Current Version | Previous Version | Text Only | Print | Product List | Glossary Off
Versions: 1 2 3 4 5 6 7 8 9 10 11 12 13 14 15 16 17 18 19 20 21 22 23 24 25 26 27 28 29 30 31 32 33 34 35 36 37 38 39 40 41 42 43 44 45 46 47 48 49 50

000
ASUS43 KMKX 061600
RWRWI

WISCONSIN REGIONAL WEATHER ROUNDUP
NATIONAL WEATHER SERVICE MILWAUKEE/SULLIVAN WI
1100 AM CDT FRI MAY 06 2016

NOTE: "FAIR" INDICATES FEW OR NO CLOUDS BELOW 12,000 FEET WITH NO
SIGNIFICANT WEATHER AND/OR OBSTRUCTIONS TO VISIBILITY.

WIZ001-002-006>008-014>016-023>028-061700-
NORTHWEST WISCONSIN

CITY           SKY/WX    TMP DP  RH WIND       PRES   REMARKS
SUPERIOR ARPT  SUNNY     85  47  26 W14       29.73F HX  82
ASHLAND        SUNNY     86  46  24 W9        29.75F HX  83
HAYWARD        SUNNY     81  43  26 SW9       29.80F
SIREN          SUNNY     78  44  30 SW10      29.81F
CUMBERLAND     SUNNY     77  41  27 SW9       29.84F
RICE LAKE      SUNNY     77  42  28 W8        29.85F
CHETEK         SUNNY     79  47  32 SW7       29.84F
LADYSMITH      SUNNY     76  48  38 CALM      29.85F
EAU CLAIRE     NOT AVBL
MENOMONIE      SUNNY     81  47  30 SW9       29.85F HX  80
NEW RICHMOND   SUNNY     77  48  35 SW9       29.84F
OSCEOLA        SUNNY     78  48  35 SW7       29.85F
$$

WIZ003>005-009-010-017-018-061700-
NORTH CENTRAL WISCONSIN

CITY           SKY/WX    TMP DP  RH WIND       PRES   REMARKS
MANITOWISH WTR SUNNY     78  45  31 NW7       29.82S
ARBOR VITAE    SUNNY     77  44  31 W8        29.83F
WOODRUFF       SUNNY     77  44  31 W8        29.83F
RHINELANDER    SUNNY     79  41  25 W12       29.84F
EAGLE RIVER    SUNNY     76  38  25 W8        29.83F
LAND O LAKES   SUNNY     76  40  26 W8        29.83F
PHILLIPS       SUNNY     76  44  31 W8        29.83F
TOMAHAWK       SUNNY     76  41  28 W10       29.85F
MEDFORD        SUNNY     73  46  37 W14       29.86F
MERRILL        SUNNY     73  46  38 CALM      29.85F
$$

WIZ029-030-035-036-043>047-061700-
CENTRAL WISCONSIN

CITY           SKY/WX    TMP DP  RH WIND       PRES   REMARKS
WAUSAU         SUNNY     74  45  35 W9        29.84F
MOSINEE        MOSUNNY   68  46  45 SW5       29.88F
MARSHFIELD     SUNNY     75  46  35 VRB7      29.87S
STEVENS POINT  MOSUNNY   64  42  45 SW8       29.89S
WAUPACA        MOSUNNY   69  43  39 SW7       29.89S
WAUTOMA        PTSUNNY   69  46  43 VRB5      29.90F
WISC RAPIDS    SUNNY     76  41  28 W6        29.89F
CAMP DOUGLAS   NOT AVBL
$$

WIZ011>013-019>022-031-037>040-048>050-061700-
NORTHEAST WISCONSIN

CITY           SKY/WX    TMP DP  RH WIND       PRES   REMARKS
ANTIGO         SUNNY     71  46  41 CALM      29.86F
SHAWANO        SUNNY     73  44  35 W7        29.86F
OCONTO         SUNNY     69  44  40 SW6       29.84F
STURGEON BAY   SUNNY     68  46  45 S12       29.87F
GREEN BAY      SUNNY     70  46  42 SW9       29.85F
MANITOWOC      NOT AVBL
APPLETON       MOSUNNY   70  43  37 SW9       29.86F
CLINTONVILLE   SUNNY     72  43  35 W7        29.86F
OSHKOSH        SUNNY     71  46  40 S8        29.88F
$$

WIZ032>034-041-042-053>061-061700-
SOUTHWEST WISCONSIN

CITY           SKY/WX    TMP DP  RH WIND       PRES   REMARKS
LA CROSSE      SUNNY     74  48  39 S7        29.88F
SPARTA         SUNNY     72  44  36 SW6       29.90F
VIROQUA        SUNNY     73  42  33 W9        29.92F
BOSCOBEL       SUNNY     72  45  37 SW7       29.92F
PRAIRIE DU CHI SUNNY     71  44  37 CALM      29.92F
PLATTEVILLE    SUNNY     68  44  43 SW7       29.96F
$$

WIZ056-057-062-063-064-067-068-061700-
SOUTH CENTRAL WISCONSIN

CITY           SKY/WX    TMP DP  RH WIND       PRES   REMARKS
REEDSBURG      SUNNY     68  46  45 SW6       29.91F
BARABOO/DELLS  PTSUNNY   70  39  32 SW7       29.91F
LONE ROCK      NOT AVBL
MINERAL POINT  SUNNY     68  43  40 SW5       29.95F
MADISON        MOSUNNY   69  45  41 SW6       29.91F
MIDDLETON      SUNNY     67  47  47 W9        29.93F
WATERTOWN      SUNNY     69  46  43 SW8       29.91F
MONROE         SUNNY     68  41  37 SW10      29.94F
JANESVILLE     MOSUNNY   73  45  35 W14       29.93F
$$

WIZ051-052-058>065-066-070>072-061700-
SOUTHEAST WISCONSIN

CITY           SKY/WX    TMP DP  RH WIND       PRES   REMARKS
MILWAUKEE      MOSUNNY   72  40  31 W10       29.92F
WAUKESHA       SUNNY     70  39  32 SW10      29.93F
MILWAUKEE/TIMM NOT AVBL
RACINE         SUNNY     71  38  29 W13       29.93F
BURLINGTON     SUNNY     70  39  32 S13       29.92F
KENOSHA        MOSUNNY   70  42  36 SW13      29.93F
FOND DU LAC    MOSUNNY   70  44  39 SW10      29.89F
SHEBOYGAN      SUNNY     73  41  31 SW12      29.89F
WEST BEND      SUNNY     70  37  30 SW9       29.91S
JUNEAU         MOSUNNY   68  45  44 SW10      29.92F
$$

LSZ147-162-061700-
LAKE SUPERIOR

STATION/POSITION TIME  TEMP    WIND        PRES    WAVE
                       AIR SEA DIR/SP/G            HT/PER
                 (UTC) (F)     (DEG/KT/KT) (MB)    (FT/S)
W MID LAKE BUOY  1450   46 37  210/ 10/ 10 1007.4F   1
DEVILS ISLAND    1500   63     230/ 18/ 19 1006.5F
SAXON HARBOR     1500   80     220/  5/ 13 1007.5
$$

LMZ867-665-643>646-061700-
LAKE MICHIGAN

STATION/POSITION TIME  TEMP    WIND        PRES    WAVE
                       AIR SEA DIR/SP/G            HT/PER
                 (UTC) (F)     (DEG/KT/KT) (MB)    (FT/S)
CHAMBERS ISLAND  1500   61     190/  8/ 17 1011.2F
N MID LAKE BUOY  1450   42 39  190/ 14/ 16 1012.2S   2/ 4
NORTHPORT PIER   1500   50     150/  7/ 11 1011.5F
SISTER BAY       1519   64     150/ 11/ 14   N/A
ALGOMA LAKESHORE 1515          220/ 13/ 14   N/A
KEWAUNEE LAKESHO 1500   46     170/ 12/ 13 1011.5F
SHEBOYGAN LAKESH 1500   50     160/ 15/ 16 1013.1F
PORT WASHINGTON  1500   64     170/  8/ 13 1013.5F
S MID LAKE BUOY  1450   44 40  170/  8/  8 1014.9F   0
KENOSHA   LAKESH 1500   65     240/  9/ 15 1014.2F
$$

TC  - TEMPERATURE IN CELSIUS
VSB - VISIBILITY IN STATUTE MILES
WCI - WIND CHILL INDEX
HX  - HEAT INDEX




USA.gov is the U.S. government's official web portal to all federal, state and local government web resources and services.